Location: Izdebno
(52.6670°N, 16.2170°E)
Time: 03:28:58
(UTC+02:00)

Transit 2A - Pass Details

Date: 01 March 2024
Orbit: 596 x 956 km, 66.7° (Epoch: 21 April)

Event Time Altitude Azimuth Distance (km) Brightness Sun altitude
Rises 19:35:58 0° 235° (SW) 2,838 9.6 -19.0°
Reaches altitude 10° 19:38:15 10° 241° (WSW) 1,934 8.7 -19.4°
Maximum altitude 19:42:26 49° 317° (NW) 782 6.4 -20.0°
Enters shadow 19:46:28 12° 32° (NNE) 1,885 7.9 -20.6°
Drops below altitude 10° 19:46:46 10° 33° (NNE) 2,002 - -20.6°
Sets 19:49:10 0° 39° (NE) 2,951 - -21.0°
